Regional Weather Roundup
Issued by NWS Burlington, VT

Home | Current Version | Previous Version | Text Only | Print | Product List | Glossary On
Versions: 1 2 3 4 5 6 7 8 9 10 11 12 13 14 15 16 17 18 19 20 21 22 23 24 25 26 27 28 29 30 31 32 33 34 35 36 37 38 39 40 41 42 43 44 45 46 47 48 49 50
000
ASUS41 KBTV 142330
RWRBTV
VERMONT REGIONAL WEATHER ROUNDUP
NATIONAL WEATHER SERVICE BURLINGTON VT
600 PM EST SUN FEB 14 2016

NOTE: "FAIR" INDICATES FEW OR NO CLOUDS BELOW 12,000 FEET WITH NO
SIGNIFICANT WEATHER AND/OR OBSTRUCTIONS TO VISIBILITY.

* THESE REPORTS ARE NOT UNDER NWS QUALITY CONTROL AND/OR DO NOT
  REPORT WEATHER SUCH AS PRECIPITATION AND FOG.

VTZ001>019-150000-
_____VERMONT_____


CITY           SKY/WX    TMP DP  RH WIND       PRES   REMARKS
BURLINGTON     FAIR       0 -16  46 CALM      30.49R
MONTPELIER     FAIR      -5 -18  53 CALM      30.41R
MORRISVILLE    FAIR      -5 -18  53 CALM      30.44R
ST. JOHNSBURY*   N/A     -1 -20  40 MISG      30.41R
LYNDONVILLE*   FAIR      -5 -21  45 SW3       30.37S
RUTLAND*       FAIR       0 -20  38 CALM      30.42R
SPRINGFIELD    FAIR       2 -19  37 NW6       30.43S WCI  -9
HIGHGATE*      FAIR      -6 -18  55 CALM      30.51S
NEWPORT*       FAIR     -10 -20  59 NW5       30.41R WCI -21
BENNINGTON     FAIR      -2 -16  51 CALM      30.43S
GALLUP MILLS*    N/A     -9 N/A N/A MISG        N/A
UNION VILLAGE*   N/A     -2 N/A N/A MISG        N/A
MT. MANSFIELD*   N/A    -17 N/A N/A NW39        N/A  WCI -52

_____LAKE CHAMPLAIN_____


CITY           SKY/WX    TMP DP  RH WIND       PRES   REMARKS
COLCHESTER RF*   N/A      3  -8  60 NE8         N/A  WCI -10
DIAMOND ISL*     N/A      5  -9  51 SE7         N/A  WCI  -7

$$

NYZ007-026>031-035-052-083-150000-
_____NORTHERN NEW YORK_____


CITY           SKY/WX    TMP DP  RH WIND       PRES   REMARKS
PLATTSBURGH    CLEAR     -4 -15  59 CALM      30.50R
SARANAC LAKE   CLEAR     -6 -18  56 W3        30.31R
MASSENA        CLEAR     -7 -20  53 SW8       30.55R WCI -23
OGDENSBURG*    CLEAR     -8 -18  59 SW6       30.52F WCI -21
STARK FALLS*     N/A     -8 N/A N/A MISG        N/A
WATERTOWN      CLOUDY    -5 -13  68 N3        30.53S
ALBANY         CLEAR      4 -16  39 NW7       30.52R WCI  -8
GLENS FALLS    CLEAR      2 -15  45 S6        30.49S WCI  -9

$$
NHZ002-005-011-150000-
_____NEW HAMPSHIRE_____


CITY           SKY/WX    TMP DP  RH WIND       PRES   REMARKS
LEBANON        CLEAR      4 -17  37 NW5       30.42R WCI  -5
MT WASHINGTON  CLEAR    -17 -24  70 W58         N/A  WCI -57
PLYMOUTH       FAIR       1 -19  38 NW3       30.42R
WHITEFIELD     CLEAR     -4 -20  46 W6        30.38R WCI -16

$$

_____REGIONAL QUEBEC LOCATIONS_____


CITY           SKY/WX    TMP DP  RH WIND       PRES   REMARKS
MONTREAL       PTCLDY    -4 -18  50 SW14      30.51R WCI -24
QUEBEC CITY    FLURRIES  -8 -15  71 W17G25    30.38R WCI -31
SHERBROOKE     CLEAR     -9 -20  59 W7        30.40R WCI -24

_____REGIONAL ONTARIO LOCATIONS_____


CITY           SKY/WX    TMP DP  RH WIND       PRES   REMARKS
OTTAWA         CLEAR     -4 -18  50 S7        30.49R WCI -18

______KEY______
VSB  - VISIBILITY IN MILES
WCI  - WIND CHILL INDEX
HX   - HEAT INDEX
$$
NNNN



USA.gov is the U.S. government's official web portal to all federal, state and local government web resources and services.